Tracking 19794 objects as of 22-Jul-2019
HD Live streaming from Space Station
objects crossing your sky now

FENGYUN 1C DEB

Track FENGYUN 1C DEB now!
10-day predictions


NORAD ID: 36735
Int'l Code: 1999-025EBH
Perigee: 710.7 km
Apogee: 848.1 km
Inclination: 99.1 °
Period: 100.3 minutes
Semi major axis: 7150 km
RCS: 0.0108 m2 (small)
Launch date: May 10, 1999
Source: People's Republic of China (PRC)
Launch site: Taiyaun Space Center, China (TSC)

Note: This is SATELLITE DEBRIS
aabbcc
Your satellite tracking list
Your tracking list is empty




NASA's NSSDC Master Catalog

Two Line Element Set (TLE):
1 36735U 99025EBH 19200.97416016  .00000501  00000-0  18059-3 0  9997
2 36735  99.1036 101.9472 0096112 196.8950 162.9026 14.35838083608334
Source of the keplerian elements: AFSPC